NOAA NWS Hourly Roundups by Site

Regional Weather Roundup for San Diego, CA

To Select Another Site Choose from List

Select Site:  

000
ASUS46 KSGX 140811
RWRSGX

SAN DIEGO HOURLY WEATHER ROUNDUP
NATIONAL WEATHER SERVICE SAN DIEGO CA
1200 AM PST FRI DEC 14 2018

NOTE: "FAIR" INDICATES FEW OR NO CLOUDS BELOW 12,000 FEET WITH NO
SIGNIFICANT WEATHER AND/OR OBSTRUCTIONS TO VISIBILITY.

CAZ042-043-060-061-PZZ750-775-140900-

GREATER SAN DIEGO AREA

CITY           SKY/WX    TMP DP  RH WIND       PRES   REMARKS
SAN DIEGO AP   MOCLDY    57  55  93 CALM      30.20F FOG
NATIONAL CITY    N/A     55  52  90 CALM      30.18F
CHULA VISTA      N/A     50  48  92 CALM      30.10F
IMPERIAL BEACH PTCLDY    50  48  93 E7        30.18F
BROWN FIELD    PTCLDY    50  42  74 E5        30.18F
MIRAMAR MCAS   PTCLDY    56  46  69 E8        30.18F
MONTGOMERY FLD PTCLDY    53  48  83 NE7       30.19F
GILLESPIE FLD  FAIR      48  43  81 CALM      30.19F

$$

NORTH SAN DIEGO COUNTY

CITY           SKY/WX    TMP DP  RH WIND       PRES   REMARKS
CAMP PENDLETON PTCLDY    44  38  79 SE3       30.19F
OCEANSIDE AP   PTCLDY    44  39  82 NE3       30.19F
OCEANSIDE HBR    N/A     54  37  53 NE3       30.21F
VISTA            N/A     50  40  68 CALM      30.17F
CARLSBAD       PTCLDY    53  41  63 CALM      30.18F
DEL MAR          N/A     55  52  90 E1        30.20F
LA JOLLA SCRIP   N/A     60  54  79 E5        30.18F
FALLBROOK      FAIR      55  25  30 N5        30.21S
ESCONDIDO        N/A     50  35  56 CALM      30.21F
SAN MARCOS       N/A     58  27  30 CALM      30.22F
POWAY            N/A     45  38  78 CALM      30.22F

$$

EAST SAN DIEGO COUNTY

CITY           SKY/WX    TMP DP  RH WIND       PRES   REMARKS
RAMONA         PTCLDY    44  30  57 SE5       30.20F
LA MESA          N/A     55  38  53 CALM      30.14F
JAMUL            N/A     50  24  35 CALM      30.21F
CAMPO            N/A     40  19  43 CALM      30.22S

$$

ORANGE COUNTY AND THE LOS ANGELES BASIN

CITY           SKY/WX    TMP DP  RH WIND       PRES   REMARKS
JOHN WAYNE AP  MOCLDY    55  39  54 CALM      30.18F
LAKE FOREST FR   N/A     58  25  28 NE1       30.06F
HUNTINGTON BCH   N/A     49  48  95 NE1       30.19F
LOS ALAMITOS   FAIR      51  46  85 N3        30.18S
FULLERTON      MOCLDY    54  39  57 CALM      30.17F
LONG BEACH     MOCLDY    54  48  80 N3        30.18F
L.A. AP        MOCLDY    58  32  37 E7        30.18F
L.A. DOWNTOWN  MOCLDY    63  28  26 VRB5      30.18F

$$

THE INLAND EMPIRE

CITY           SKY/WX    TMP DP  RH WIND       PRES   REMARKS
CORONA         MOCLDY   N/A N/A N/A E7          N/A
CHINO          MOCLDY    53  32  44 VRB3      30.22F
ONTARIO        MOCLDY    51  31  46 CALM      30.21F
SAN BERNARDINO FAIR      51  29  44 SE3       30.24S
RIVERSIDE AP   MOCLDY    54  29  38 NE6       30.22F
MORENO VALLEY    N/A     59  31  34 E2        28.32F
MARCH ARB      MOCLDY    46  31  54 W5        30.22F
HEMET EAST       N/A     54  16  22 CALM      30.15F
FRENCH VALLEY  FAIR      48  32  53 N5        30.23F
TEMECULA         N/A     50  38  63 CALM      30.21F

$$

SAN BERNARDINO AND RIVERSIDE COUNTY MOUNTAINS

CITY           SKY/WX    TMP DP  RH WIND       PRES   REMARKS
BIG BEAR AP    MOCLDY    27  18  69 CALM      30.35F

$$

SOUTHERN DESERT INCLUDING THE COACHELLA VALLEY

CITY           SKY/WX    TMP DP  RH WIND       PRES   REMARKS
PALM SPRINGS   MOCLDY    53  32  44 N6        30.28F
THOUSAND PALMS   N/A     49  34  55 W3        30.25F
PALM DESERT      N/A     48  38  68 CALM        N/A
THERMAL        MOCLDY    48  35  60 N5        30.25F
BORREGO AP     NOT AVBL
IMPERIAL AP    MOCLDY    49  36  61 CALM      30.25F
EL CENTRO NAS  MOCLDY    49  34  56 SW6       30.27S
YUMA AZ        CLEAR     54  26  34 NW7       30.25S
MEXICALI       CLEAR     48  36  61 N2        30.26F

$$

UPPER DESERT

CITY           SKY/WX    TMP DP  RH WIND       PRES   REMARKS
HESPERIA         N/A     38  27  65 CALM      30.38F
APPLE VALLEY     N/A     31  27  86 CALM      30.41F
PALMDALE       MOCLDY    38  29  70 SW3       30.32S
LANCASTER      MOCLDY    34  29  82 W5        30.33S WCI  30
EDWARDS AFB    MOCLDY    37  29  73 CALM      30.30S
DAGGETT        MOCLDY    38  24  57 W5        30.32S WCI  34
29 PALMS N     PTCLDY    42  25  50 CALM      30.37F

$$

REGIONAL REPORTS

CITY           SKY/WX    TMP DP  RH WIND       PRES   REMARKS
SANTA BARBARA  CLOUDY    49  39  68 CALM      30.14F
SANDBERG       MOCLDY    47  13  25 E18       30.31S
LAS VEGAS NV   PTCLDY    43  22  43 SW5       30.34S
PHOENIX AZ     CLEAR     47  25  42 SE6       30.23F
TIJUANA        CLEAR     54  43  66 CALM      30.22F

$$

OFFSHORE ISLANDS

CITY           SKY/WX    TMP DP  RH WIND       PRES   REMARKS
CATALINA ARPT  MOCLDY    61  18  18 S6        30.21F
SAN CLEMENTE I MOCLDY    57  32  38 S5        30.19S
SAN NICOLAS IS CLOUDY    59 N/A N/A S12       30.15F HAZE

$$

MARINE AND OFFSHORE BUOY REPORTS

STATION/POSITION SKY/WX   TEMP    WIND        PRES    VSBY  SWELL
                          AIR SEA DIR/SP/G                  HT/PER/DIR
                          (F)     (DEG/KT/KT) (MB)    (MI)  (FT/S/D)
TANNER BANKS               62 62              1020.9F
S CLEMENTE BASIN           62 63  120/  8/  8 1021.7F         5/290/15
SAN NICOLAS IS.               62                N/A           8/310/14
SO. S. ROSA ISLA           60 61  130/  8/ 12 1020.9         10/290/15
W. S. BARBARA CH                                N/A          10/290/13
M. S. BARBARA CH           65 62  120/ 19/ 21 1020.7F         5/240/14
S. MONICA BASIN            62 62  110/  6/  8 1021.4F         3/200/15
S PEDRO CHANNEL               63                N/A           3/270/12
OCEANSIDE OFFSHR              63                N/A           2/210/14
TORREY PINES OTR              63                N/A           3/260/13
SAN DIEGO BAY                                 1021.9F
IMPERIAL BEACH                62                N/A           3/270/18
POINT LOMA SOUTH              65                N/A           3/270/14

$$



 

View Past Reports for San Diego, CA.

Products Courtesy of NOAA-NWS
NWS Information Parsing Script by Ken True at Saratoga Weather - Script by SE Lincoln Weather.